Location: Chippewa Lake
(41.0698°N, 81.9010°W)
Time: 02:08:50
(UTC+00:00)

Lacrosse 4 Rocket - Pass Details

Date: 09 May 2021
Orbit: 541 x 616 km, 68.0° (Epoch: 24 June)

Event Time Altitude Azimuth Distance (km) Brightness Sun altitude
Exits shadow 07:40:05 14° 131° (SE) 1,725 3.8 -23.5°
Maximum altitude 07:41:43 17° 105° (ESE) 1,585 3.8 -23.4°
Drops below altitude 10° 07:44:31 10° 66° (ENE) 1,971 5.0 -23.0°
Sets 07:47:27 0° 46° (NE) 2,872 6.4 -22.7°
